Hourly Weather Roundup
Issued by NWS Central Illinois

Home | Current Version | Previous Version | Text Only | Print | Product List | Glossary On
Versions: 1 2 3 4 5 6 7 8 9 10 11 12 13 14 15 16 17 18 19 20 21 22 23 24 25 26 27 28 29 30 31 32 33 34 35 36 37 38 39 40 41 42 43 44 45 46 47 48 49 50
000
NZUS43 KILX 272010
HWRILX

AREA WEATHER ROUNDUP
NATIONAL WEATHER SERVICE, LINCOLN IL
200 PM CST TUE JAN 27 2015


CITY           SKY/WX    TMP DP  RH WIND       PRES   REMARKS
BLOOMINGTON    PTSUNNY   31  27  85 NE8       30.17R WCI  24
CHAMPAIGN      CLOUDY    31  26  82 N9        30.15S WCI  23
DECATUR        CLOUDY    33  28  81 NE9       30.16  WCI  25
FLORA          CLOUDY    36  30  78 N8        30.15R WCI  30
GALESBURG      CLOUDY    29  25  87 N7        30.19R WCI  22
JACKSONVILLE   CLOUDY    36  29  76 N6        30.17S WCI  31
LACON          CLOUDY    30  24  79 NE5       30.18S WCI  25
LAWRENCEVILLE  CLOUDY    33  30  88 NW9       30.15  WCI  25
LITCHFIELD     CLOUDY    35  29  78 N10       30.16R WCI  27
$$


CITY           SKY/WX    TMP DP  RH WIND       PRES   REMARKS
LINCOLN        CLOUDY    34  29  82 N7        30.18S WCI  28
MACOMB         CLOUDY    31  27  87 NE6       30.21R WCI  25
MATTOON        CLOUDY    32  27  81 N9        30.14  WCI  24
MT CARMEL AP   CLOUDY    36  32  87 N7        30.14S WCI  30
OLNEY-NOBLE AP CLOUDY    34  30  86 CALM      30.16R
PARIS          CLOUDY    31  28  88 NE3       30.15R
PEORIA         CLOUDY    32  25  75 VRB5      30.19  WCI  27
PONTIAC        CLOUDY    31  28  88 NE3       30.18S FOG
RANTOUL        CLOUDY    32  27  83 N9        30.16R WCI  24
ROBINSON       CLOUDY    32  30  92 N6        30.15S WCI  26
SPRINGFIELD    CLOUDY    33  27  78 N8        30.18  WCI  26
TAYLORVILLE    CLOUDY    32  28  86 N8        30.17S WCI  25
$$

...REGIONAL REPORTS...


CITY           SKY/WX    TMP DP  RH WIND       PRES   REMARKS
CHICAGO O`HARE MOSUNNY   31  18  58 NE7       30.17  WCI  24
KANKAKEE       MOSUNNY   30  19  63 NE5       30.18R WCI  25
MOLINE         CLOUDY    30  22  72 NE3       30.20
MOUNT VERNON   CLOUDY    39  27  60 N5        30.14R
PITTSFIELD     PTSUNNY   41  32  69 NE6       30.16S
QUINCY         CLOUDY    38  31  76 NE9       30.16  WCI  31
ROCKFORD       CLOUDY    31  23  72 N5        30.20  WCI  26
$$


CITY           SKY/WX    TMP DP  RH WIND       PRES   REMARKS
BURLINGTON     CLOUDY    32  27  81 E6        30.18  WCI  26
CEDAR RAPIDS   CLOUDY    32  26  78 E8        30.17  WCI  25
DES MOINES     MOSUNNY   45  30  55 SE6       30.14
KIRKSVILLE     PTSUNNY   44  32  62 CALM      30.15F
OTTUMWA        CLOUDY    38  29  70 E5        30.15  WCI  34
ST LOUIS       PTSUNNY   45  30  57 N8        30.16
$$


CITY           SKY/WX    TMP DP  RH WIND       PRES   REMARKS
TERRE HAUTE    CLOUDY    31  26  82 N5        30.13F WCI  26
EVANSVILLE     CLOUDY    35  30  82 N9        30.14  HAZE    WCI  28
INDIANAPOLIS   PTSUNNY   28  10  46 N7        30.12  WCI  21
LAFAYETTE      CLOUDY    27  11  51 NE5       30.15  WCI  22
MADISON        LGT SNOW  28  23  81 CALM      30.18S
MILWAUKEE      MOSUNNY   29  16  58 NE10      30.20  WCI  20
$$





USA.gov is the U.S. government's official web portal to all federal, state and local government web resources and services.